Regional Weather Roundup
Issued by NWS

Home | Current Version | Previous Version | Text Only | Print | Product List | Glossary On
Versions: 1 2 3 4 5 6 7 8 9 10 11 12 13 14 15 16 17 18 19 20 21 22 23 24 25 26 27 28 29 30 31 32 33 34 35 36 37 38 39 40 41 42 43 44 45 46 47 48 49 50
000
ASUS44 KJAN 301510
RWRMS

MISSISSIPPI HOURLY WEATHER ROUNDUP
NATIONAL WEATHER SERVICE JACKSON MS
1000 AM CDT SAT APR 30 2016

NOTE: "FAIR: INDICATES FEW OR NO CLOUDS BELOW 12,000 FEET WITH NO
SIGNIFICANT WEATHER AND/OR OBSTRUCTIONS TO VISIBILITY.

MSZ001>002-007>008-010>013-018>021-025>028-034>036-301600-
NORTHWEST MISSISSIPPI

CITY           SKY/WX    TMP DP  RH WIND       PRES   REMARKS
BATESVILLE     DRIZZLE   67  63  89 SW6       29.93R
CLEVELAND      RAIN      64  64 100 SW7       29.90R
GREENWOOD      CLOUDY    73  67  81 CALM      29.89R
GREENVILLE     HVY RAIN  66  62  87 W10       29.92R VSB 3/4
OLIVE BRANCH   LGT RAIN  64  64 100 S8        29.90S
OXFORD         CLOUDY    64  63  94 NW5       29.93S
TUNICA         RAIN      64  59  82 SW21G37   29.89S
WINONA         FAIR      68  67  96 SE6       29.89S
$$

MSZ003>006-009-014>017-022>024-029>033-037>039-301600-
NORTHEAST MISSISSIPPI

CITY           SKY/WX    TMP DP  RH WIND       PRES   REMARKS
COLUMBUS AFB   CLOUDY    70  66  87 VRB3      29.91S
CORINTH        CLOUDY    68  64  88 VRB5      29.92R
GOLDN TRIANGLE PTSUNNY   72  66  83 SW5       29.91R
STARKVILLE     FAIR      70  66  88 CALM      29.90F
TUPELO         CLOUDY    68  64  87 SE9       29.90S
$$

MSZ040-058-301600-
CENTRAL MISSISSIPPI

CITY           SKY/WX    TMP DP  RH WIND       PRES   REMARKS
JACKSON INTL   CLOUDY    74  69  85 CALM      29.90R
JACKSON HAWKNS CLOUDY    73  68  84 CALM      29.91R
MADISON        CLOUDY    72  68  88 CALM      29.90R
MERIDIAN KEY   CLOUDY    75  69  81 SE9       29.90S
MERIDIAN NAS   CLOUDY    72  66  81 SE8       29.91S
VICKSBURG TVR  CLOUDY    74  69  85 SE9       29.85S
VICKSBURG VKS  SUNNY     73  70  88 SE7       29.85F
$$

MSZ059>079-301600-
SOUTH MISSISSIPPI

CITY           SKY/WX    TMP DP  RH WIND       PRES   REMARKS
BROOKHAVEN     CLOUDY   N/A N/A N/A N3        29.89R
COLUMBIA       PTSUNNY   77  72  83 SE7       29.92R
HATTIESBURG    CLOUDY    79  70  74 S13       29.89R
MCCOMB         CLOUDY    74  72  93 E6        29.86R
NATCHEZ        CLOUDY    73  66  78 E9        29.85S
PINE BELT      CLOUDY    75  70  83 SE8       29.90R
$$

MSZ080>082-301600-
COASTAL MISSISSIPPI

CITY           SKY/WX    TMP DP  RH WIND       PRES   REMARKS
BAY ST LOUIS   CLOUDY    77  70  78 SE8G18    29.87R
BILOXI         PTSUNNY   78  76  92 SE9       29.87S
PASCAGOULA     CLOUDY    78  73  84 SE13G23   29.89S
GULFPORT       CLOUDY    78  73  84 SE22      29.86R
$$



USA.gov is the U.S. government's official web portal to all federal, state and local government web resources and services.